Location: Minneapolis
(44.9800°N, 93.2640°W)
Time: 02:15:50
(UTC-05:00)

Iridium 96 - Visible Passes

Search period start: 18 April 2015 00:00
Search period end: 28 April 2015 00:00
Orbit: 776 x 779 km, 86.4° (Epoch: 17 April)

Date Brightness Start Highest point End Pass type
(mag) Time Alt. Az. Time Alt. Az. Time Alt. Az.
20 Apr 8.1 05:42:17 10° SE 05:46:26 25° E 05:50:43 10° NNE visible
21 Apr 8.6 05:10:33 10° ESE 05:13:11 15° ENE 05:16:04 10° NE visible
23 Apr 7.4 05:41:45 10° SSE 05:46:25 35° E 05:51:10 10° NNE visible
24 Apr 8.3 05:09:26 10° SE 05:13:06 20° E 05:16:57 10° NNE visible
25 Apr 8.8 04:38:26 10° E 04:39:53 11° ENE 04:41:39 10° NE visible
27 Apr 7.7 05:08:43 10° SE 05:13:03 28° E 05:17:31 10° NNE visible
